RH
23 23 20 19 20 20 20 17 16 15 16 16 14 13 13 15 15 14 13 13 13 12 12 14 12 13 15 16 15 15 20 20 19 18 17 16 15 15 13 14 15 16 16 16 16
21 20 21 21 21 21 19 18 16 16 16 15 15 16 18 16 15 15 14 14 13 13 13 15 15 16 16 18 18 17 22 20 19 18 16 15 14 14 15 14 14 16 16 17 16
21 20 19 19 19 19 18 18 17 16 16 15 16 18 17 17 17 17 15 15 14 14 15 16 18 17 18 19 19 20 19 18 17 16 14 13 14 14 14 15 14 16 17 17 16
24 22 20 19 19 20 20 18 16 16 15 15 18 17 16 16 21 17 16 15 15 14 14 15 17 17 18 19 18 19 17 17 15 16 15 15 14 13 13 14 14 16 17 17 17
27 27 27 24 22 20 19 18 17 16 16 17 19 17 17 19 18 17 16 15 14 14 14 15 17 18 19 19 19 19 18 17 17 17 17 17 16 16 14 13 13 14 15 16 16
29 29 31 28 27 24 20 18 17 16 16 17 17 18 17 19 17 16 16 15 14 14 15 16 17 18 18 18 19 19 19 19 18 18 19 19 18 18 16 15 14 15 15 15 16
31 31 32 34 31 30 26 22 20 19 19 19 18 18 18 19 19 18 17 17 16 16 17 17 18 18 20 20 21 21 21 20 20 20 22 22 21 20 16 16 17 16 15 15 16
34 32 31 34 36 32 30 28 28 25 23 22 21 21 21 21 21 20 20 19 18 17 18 18 18 19 21 22 22 23 23 24 22 24 25 24 24 19 18 19 18 18 17 16 16
34 34 34 33 34 37 34 30 29 28 28 27 26 25 24 23 22 22 22 22 21 20 19 19 21 22 25 25 25 26 27 27 27 26 28 27 24 22 20 20 18 17 17 16 16
33 33 32 32 32 36 37 34 31 30 30 30 30 29 26 25 24 24 25 25 25 25 23 23 23 25 26 28 31 28 29 27 28 29 27 28 27 24 22 20 18 17 17 17 16
34 33 32 30 30 32 34 35 36 34 33 30 29 28 26 26 26 27 27 28 27 27 28 27 29 29 29 28 27 28 29 28 26 28 28 28 26 22 21 20 18 16 16 16 16
31 31 32 31 30 29 27 30 32 31 31 25 25 27 27 27 27 27 28 29 29 31 31 33 33 32 30 30 30 31 30 29 27 28 29 28 27 22 18 16 15 14 15 15 16
30 29 28 29 29 29 29 29 28 28 29 26 28 29 28 28 28 28 29 30 31 33 34 35 31 31 32 32 33 32 32 30 30 30 30 29 28 22 17 16 14 14 14 15 16
28 27 27 27 30 28 29 27 27 30 34 29 30 30 29 30 29 29 31 31 32 33 34 33 30 32 32 31 31 33 30 31 32 34 38 29 35 22 18 15 16 16 15 16 16
27 27 27 26 27 29 28 26 27 31 48 30 30 29 29 30 32 32 33 33 34 34 33 34 31 32 33 30 33 32 32 33 34 36 37 32 39 24 20 19 17 18 18 18 18
32 31 28 27 27 28 28 27 27 39 47 32 32 31 31 31 32 33 32 33 33 34 34 32 32 32 32 33 33 35 37 37 37 40 50 32 33 25 22 21 19 21 20 20 21
22 29 31 32 31 28 27 28 36 38 25 31 33 33 33 33 34 35 36 37 38 41 40 34 32 33 34 36 36 38 41 54 56 63 53 29 35 27 24 24 24 25 23 22 24
21 23 32 31 32 30 27 31 34 21 23 30 32 30 32 27 33 33 34 36 33 34 38 40 43 34 34 35 39 40 39 50 44 46 38 38 43 32 23 24 23 23 26 27 29
24 26 41 46 46 45 43 40 25 25 26 27 23 24 23 25 28 31 36 35 30 34 41 38 36 36 37 36 37 39 45 35 44 38 47 35 25 21 24 26 30 32 31 34 35
22 30 35 42 47 51 57 57 57 53 45 39 37 29 30 25 33 37 34 30 34 33 35 40 46 30 32 34 36 39 39 47 49 52 45 32 28 32 38 39 40 45 46 44 43
19 33 26 30 36 43 50 55 58 63 66 71 73 71 67 64 55 48 41 42 50 46 41 38 41 33 34 34 36 41 42 43 45 44 47 43 39 51 50 49 56 57 57 54 54
17 23 20 18 31 39 41 43 41 45 46 57 55 60 72 81 85 81 75 83 79 74 75 72 65 56 47 40 41 43 43 48 58 51 57 53 54 62 59 61 63 70 76 74 72
13 18 12 16 32 31 27 28 31 39 39 42 49 58 61 67 77 77 85 92 93 97 98 97 86 85 69 62 64 66 68 78 81 73 74 78 66 70 72 74 76 86 91 92 87
17 18 10 16 14 12 12 11 15 17 33 30 36 40 42 47 56 69 68 64 73 75 91 96 98 99 96 96 95 99 98 94 98 99 92 89 88 86 86 86 86 89 95 97 96
12 19 12 16 13 12 14 13 21 22 22 16 21 27 33 29 23 21 35 45 52 58 72 90 95 95 89 86 85 89 95 91 93 96 97 96 96 96 96 95 94 94 95 96 97
13 13 11 16 14 16 15 28 26 25 25 22 24 26 27 28 28 38 30 26 19 22 46 54 76 70 70 67 70 94 95 93 93 95 96 95 96 96 96 97 96 95 92 92 92
14 15 18 19 19 21 29 27 26 28 28 29 32 29 27 28 30 27 28 25 20 24 27 30 34 44 49 47 59 88 91 91 93 94 95 93 97 96 95 96 96 96 97 96 96